KL1YC Weather Reports


time (UTC)temp
F
wind
direction
speed
knots
gust
knots
rain 1hr
in
rain 24hr
in
rain mn
in
humidity
%
barometer
mb
20260901174536 38 270 0.0 0.0 0.00 0.00 0.00 87 1008.0
20260901173035 38 269 0.9 0.0 0.00 0.00 0.00 87 1008.1
20260901171537 37 249 0.0 0.0 0.00 0.00 0.00 89 1008.2
20260901170036 37 239 0.0 0.0 0.00 0.00 0.00 89 1008.3
20260901164534 38 295 0.0 0.0 0.00 0.00 0.00 89 1008.3
20260901163034 37 246 0.0 0.0 0.00 0.00 0.00 92 1008.3
20260901161539 36 246 0.0 0.0 0.00 0.00 0.00 94 1008.1
20260901160048 36 246 0.0 0.0 0.00 0.00 0.00 95 1008.2
20260901154535 35 246 0.0 0.0 0.00 0.00 0.00 95 1008.2
20260901153037 35 246 0.0 0.0 0.00 0.00 0.00 96 1008.1
20260901151532 33 246 0.0 0.0 0.00 0.00 0.00 95 1008.1
20260901150034 32 246 0.0 0.0 0.00 0.00 0.00 94 1008.1
20260901144532 33 246 0.0 0.0 0.00 0.00 0.00 95 1008.1
20260901143033 33 246 0.0 0.0 0.00 0.00 0.00 95 1008.1
20260901141535 33 246 0.0 0.0 0.00 0.00 0.00 95 1008.1
20260901140033 33 246 0.0 0.0 0.00 0.00 0.00 94 1008.2
20260901134550 33 246 0.0 0.0 0.00 0.00 0.00 94 1008.4
20260901133032 33 246 0.0 0.0 0.00 0.00 0.00 95 1008.3
20260901131533 32 246 0.0 0.0 0.00 0.00 0.00 94 1008.4
20260901130032 32 246 0.0 0.0 0.00 0.00 0.00 93 1008.3
20260901124529 33 246 0.0 0.0 0.00 0.00 0.00 92 1008.5
20260901123027 33 246 0.0 0.0 0.00 0.00 0.00 92 1008.3
20260901121528 33 246 0.0 0.0 0.00 0.00 0.00 92 1008.2
20260901120024 34 246 0.0 0.0 0.00 0.00 0.00 91 1008.1
20260901114527 34 246 0.0 0.0 0.00 0.00 0.00 90 1008.1
20260901113023 36 246 0.0 0.0 0.00 0.00 0.00 91 1008.1
20260901111518 36 246 0.0 0.0 0.00 0.00 0.00 89 1008.1
20260901110017 37 246 0.0 0.0 0.00 0.00 0.00 89 1008.0
20260901104518 38 246 0.0 0.0 0.00 0.00 0.00 87 1008.0
20260901103012 39 246 0.0 0.0 0.00 0.00 0.00 87 1008.0
20260901101511 39 246 0.0 0.0 0.00 0.00 0.00 87 1008.0
20260901100009 40 246 0.0 0.0 0.00 0.00 0.00 86 1008.1
20260901094508 41 246 0.0 0.0 0.00 0.00 0.00 85 1008.1
20260901093015 42 246 0.0 0.0 0.00 0.00 0.00 84 1008.2
20260901091504 42 246 0.0 0.0 0.00 0.00 0.00 82 1008.0
20260901090006 43 246 0.0 0.0 0.00 0.00 0.00 80 1008.0
20260901084501 43 246 0.0 0.0 0.00 0.00 0.07 79 1008.0
20260901083059 44 236 0.0 0.0 0.00 0.00 0.07 78 1007.9
20260901081610 44 232 0.0 0.0 0.00 0.00 0.07 77 1007.8
20260901080058 45 261 0.0 0.0 0.00 0.00 0.07 75 1007.8
20260901074508 46 227 0.0 0.0 0.00 0.00 0.07 73 1007.8
20260901073008 46 245 0.0 0.0 0.00 0.00 0.07 71 1007.8
20260901071510 47 240 0.0 0.0 0.00 0.00 0.07 70 1007.6
20260901070006 47 250 0.0 0.0 0.00 0.00 0.07 69 1007.6
20260901064558 47 244 0.0 0.0 0.00 0.00 0.07 68 1007.5
20260901063056 48 244 0.0 0.0 0.00 0.00 0.07 67 1007.5
20260901061559 48 233 0.0 0.0 0.00 0.00 0.07 67 1007.4
20260901060054 48 246 0.0 0.0 0.00 0.00 0.07 67 1007.3
20260901054554 48 246 0.0 0.0 0.00 0.00 0.07 67 1007.1
20260901053108 48 246 0.0 0.0 0.00 0.00 0.07 66 1007.0
20260901051554 49 246 0.0 0.0 0.00 0.00 0.07 65 1007.0
20260901050053 49 246 0.0 0.0 0.00 0.00 0.07 63 1007.0
20260901044624 49 246 0.0 0.0 0.00 0.00 0.07 61 1006.9
20260901043056 50 246 0.0 0.0 0.00 0.00 0.07 60 1006.9
20260901041555 50 246 0.0 0.0 0.00 0.00 0.07 60 1006.8
20260901040057 50 246 0.0 0.0 0.00 0.00 0.07 59 1006.7
20260901034557 51 249 0.0 0.0 0.00 0.00 0.07 58 1006.6
20260901033051 51 249 0.9 0.0 0.00 0.00 0.07 57 1006.5
20260901031553 51 243 0.9 0.0 0.00 0.00 0.07 57 1006.4
20260901030049 52 261 1.7 0.0 0.00 0.00 0.07 54 1006.4
20260901024550 52 215 0.9 0.0 0.00 0.00 0.07 55 1006.4
20260901023049 52 276 1.7 0.0 0.00 0.00 0.07 54 1006.4
20260901021608 53 231 0.9 0.0 0.00 0.00 0.07 52 1006.3
20260901020101 53 263 0.9 0.0 0.00 0.00 0.07 49 1006.1
20260901014550 52 250 2.6 0.0 0.00 0.00 0.07 48 1006.0
20260901013046 52 235 2.6 0.0 0.00 0.00 0.07 52 1006.0
20260901011544 51 246 1.7 0.0 0.00 0.00 0.07 53 1005.9
20260901010044 51 258 2.6 0.0 0.00 0.00 0.07 52 1005.9
20260901004544 51 290 1.7 0.0 0.00 0.00 0.07 51 1005.9
20260901003049 50 250 2.6 0.0 0.00 0.00 0.07 56 1005.9
20260901001557 50 294 3.5 0.0 0.00 0.00 0.07 54 1005.9
20260901000047 51 269 2.6 0.0 0.00 0.00 0.07 56 1005.8
20260831234556 50 270 3.5 0.0 0.00 0.00 0.07 57 1005.7
20260831233046 50 264 2.6 0.0 0.00 0.00 0.07 56 1005.7
20260831231541 50 213 1.7 0.0 0.00 0.00 0.07 57 1005.5
20260831230037 50 252 2.6 0.0 0.00 0.00 0.07 61 1005.4
20260831224535 49 346 2.6 0.0 0.00 0.00 0.07 59 1005.4
20260831223034 49 244 2.6 0.0 0.00 0.00 0.07 60 1005.3
20260831221535 49 254 1.7 0.0 0.00 0.00 0.07 60 1005.2
20260831220030 48 268 1.7 0.0 0.00 0.00 0.07 65 1005.0
20260831214530 48 237 2.6 0.0 0.00 0.00 0.07 64 1005.0
20260831213036 47 271 3.5 0.0 0.00 0.00 0.07 68 1004.9
20260831211528 48 287 1.7 0.0 0.00 0.00 0.07 72 1004.8
20260831210024 46 257 1.7 0.0 0.00 0.00 0.07 79 1004.8
20260831204523 46 244 2.6 0.0 0.00 0.00 0.07 82 1004.7
20260831203023 45 202 0.9 0.0 0.00 0.00 0.07 83 1004.6
20260831201526 46 246 0.9 0.0 0.00 0.00 0.07 81 1004.4
20260831200024 46 248 0.9 0.0 0.00 0.00 0.07 83 1004.4
20260831194532 45 267 0.9 0.0 0.00 0.00 0.07 85 1004.3
20260831193021 44 250 0.9 0.0 0.00 0.00 0.07 87 1004.3
20260831191513 44 304 0.0 0.0 0.00 0.00 0.07 90 1004.3
20260831190015 43 274 0.0 0.0 0.00 0.00 0.07 90 1004.2
20260831184521 43 284 0.0 0.0 0.00 0.00 0.07 91 1004.0
20260831183014 43 259 0.9 0.0 0.00 0.00 0.07 92 1003.8
20260831181519 42 245 0.0 0.0 0.00 0.00 0.07 92 1003.8
20260831180011 42 256 0.0 0.0 0.00 0.00 0.07 93 1003.6